Printer-friendly version

IAU Minor Planet Center

Minor Planet Center

MPEC 2000-U27: 2000 UH11

The following Minor Planet Electronic Circular may be linked-to from your own Web pages, but must not otherwise be redistributed electronically.


Read MPEC 2000-U26 Read MPEC 2000-U28


M.P.E.C. 2000-U27                                Issued 2000 Oct. 27, 18:25 UT

     The Minor Planet Electronic Circulars contain information on unusual
         minor planets and routine data on comets.  They are published
   on behalf of Commission 20 of the International Astronomical Union by the
          Minor Planet Center, Smithsonian Astrophysical Observatory,
                          Cambridge, MA 02138, U.S.A.

             Prepared using the Tamkin Foundation Computer Network

                              MPC@CFA.HARVARD.EDU
          URL http://cfa-www.harvard.edu/iau/mpc.html  ISSN 1523-6714

                                   2000 UH11

Observations:
     K00U11H* C2000 10 25.29478 02 02 19.13 +23 14 16.6          17.8        704
     K00U11H  C2000 10 25.30825 02 02 11.49 +23 14 53.6          17.6        704
     K00U11H  C2000 10 25.32173 02 02 03.86 +23 15 30.2          17.8        704
     K00U11H  C2000 10 25.33521 02 01 56.23 +23 16 07.1          17.9        704
     K00U11H  C2000 10 25.34871 02 01 48.61 +23 16 43.2          18.0        704
     K00U11H  C2000 10 26.15192 01 54 27.33 +23 52 17.9          17.7        704
     K00U11H  C2000 10 26.15360 01 54 26.42 +23 52 20.1          17.7 R      699
     K00U11H  C2000 10 26.15398 01 54 26.18 +23 52 21.7          17.8        704
     K00U11H  C2000 10 26.16784 01 54 18.33 +23 52 59.1          17.9        704
     K00U11H  C2000 10 26.16849 01 54 17.91 +23 53 00.3          18.0        704
     K00U11H  C2000 10 26.16860 01 54 17.87 +23 53 01.3          17.7        704
     K00U11H  C2000 10 26.17716 01 54 13.19 +23 53 22.9                      699
     K00U11H  C2000 10 26.18309 01 54 09.78 +23 53 39.5          17.4        704
     K00U11H  C2000 10 26.18374 01 54 09.40 +23 53 41.1          17.4        704
     K00U11H  C2000 10 26.18385 01 54 09.32 +23 53 41.4          17.1        704
     K00U11H  C2000 10 26.19733 01 54 01.72 +23 54 16.6          17.7        704
     K00U11H  C2000 10 26.19799 01 54 01.34 +23 54 18.7          17.7        704
     K00U11H  C2000 10 26.19810 01 54 01.25 +23 54 18.3          17.4        704
     K00U11H  C2000 10 26.20069 01 53 59.97 +23 54 24.4                      699
     K00U11H  C2000 10 26.21276 01 53 52.94 +23 54 56.6          17.6        704
     K00U11H  C2000 10 26.21378 01 53 52.34 +23 55 00.2          17.7        704
     K00U11H  C2000 10 26.21389 01 53 52.32 +23 54 59.1          17.9        704
     K00U11H  C2000 10 26.22406 01 53 46.71 +23 55 25.9                      699
     K00U11H  C2000 10 26.59076 01 50 23.46 +24 10 59.2          17.9 V      402
     K00U11H  C2000 10 26.59203 01 50 22.76 +24 11 01.6                      402
     K00U11H  C2000 10 26.59330 01 50 22.07 +24 11 04.9                      402
     K00U11H  C2000 10 26.59456 01 50 21.38 +24 11 08.8                      402
     K00U11H  C2000 10 27.46655 01 42 21.13 +24 47 07.1          17.2 R      467
     K00U11H  C2000 10 27.46733 01 42 20.62 +24 47 08.1          16.8 R      467
     K00U11H  C2000 10 27.46885 01 42 19.81 +24 47 13.5          17.0 R      467
     K00U11H  C2000 10 27.55217 01 41 34.45 +24 49 48.8                      900
     K00U11H  C2000 10 27.55826 01 41 30.94 +24 50 04.3          17.4 V      900

Observer details:
402 Dynic Astronomical Observatory.  Observer A. Sugie.  0.60-m f/3.7 reflector
    + CCD.
467 Auckland Observatory.  Observers I. P. Griffin, N. Brady.  0.35-m
    Schmidt-Cassegrain + CCD.
699 Lowell Observatory-LONEOS.  Observer B. A. Skiff,  Measurer B. W. Koehn.
    0.59-m LONEOS Schmidt + CCD.
704 Lincoln Laboratory ETS, New Mexico.  Observers M. Blythe, F. Shelly,
    M. Bezpalko, M. Elowitz, R. Huber, L. Manguso.  Measurers J. Stuart,
    R. Sayer, J. B. Evans, H. Viggh.  1.0-m f/2.15 reflector + CCD.
900 Moriyama.  Observer Y. Ikari.  0.25-m f/6.3 reflector + CCD.

Orbital elements:
2000 UH11
Epoch 2000 Oct. 23.0 TT = JDT 2451840.5                 Spahr
M 169.16699              (2000.0)            P               Q
n   1.21596404     Peri.  187.41525     -0.80602405     +0.53202767
a   0.8693385      Node    29.77913     -0.51270011     -0.40863015
e   0.4192151      Incl.   31.48174     -0.29574284     -0.74159825
P   0.81           H   19.5           G   0.15
From 32 observations 2000 Oct. 25-27.

Ephemeris:
2000 UH11                a,e,i = 0.87, 0.42, 31                  q = 0.5049
Date    TT    R. A. (2000) Decl.     Delta      r     Elong.  Phase     V
2000 10 23    02 23.26   +21 22.9    0.240    1.231   167.4    10.1    17.5
2000 11 02    00 53.93   +27 34.7    0.262    1.234   154.3    20.4    18.1
2000 11 12    23 47.73   +29 24.9    0.320    1.229   132.6    36.4    19.0
2000 11 22    23 10.28   +29 33.3    0.394    1.216   116.5    46.6    19.7
2000 12 02    22 51.92   +29 35.1    0.473    1.194   104.4    53.1    20.2
2000 12 12    22 44.59   +29 56.6    0.547    1.165    94.7    57.4    20.6
2000 12 22    22 43.59   +30 39.5    0.613    1.127    86.5    60.6    20.9
2001 01 01    22 46.33   +31 40.4    0.666    1.080    79.3    63.4    21.0

Timothy B. Spahr             (C) Copyright 2000 MPC           M.P.E.C. 2000-U27

Read MPEC 2000-U26 Read MPEC 2000-U28


Our Web policy. Index to the CBAT/MPC/ICQ pages.


Valid HTML 4.01!